Date String (YYYY-MM-DD hh:mm:ss) UTC,Instrument flags,absolute air pressure of the measurement (hPa),sample flow rate (lpm),inlet stack bypass flow (lpm),air temperature of the measurement (°C),ambient temperature measured by the external sensor (°C),aerosol sample conditioner tube jacket temperature (°C),OPC LED temperature (°C),internal box temperature (°C),relative humidity of the measurement (%),span deviation,mass concentration of particles derived from Lorenz-Mie calculation of OPC scattering (μg/m³),mass concentration of particles derived from Lorenz-Mie calculation of OPC scattering (μg/m³),mass concentration of particles derived from Lorenz-Mie calculation of OPC scattering (μg/m³)
DateTimeUTC,F1_M11,P_M11,Q1_M11,Q2_M11,T1_M11,T2_M11,T3_M11,T4_M11,T5_M11,U1_M11,ZSPAN_M11,X2_M11,X0_M11,X1_M11
2023-12-15 11:00:00,SystemResetWarning,0833.4,5.01,000.00,018.7,017.7,000.0,027.2,020.0,17.9,0000.0,0002.30,0004.13,0002.01
2023-12-15 11:01:00,SystemResetWarning,0833.4,5.00,000.00,018.7,017.7,000.0,027.2,020.0,17.5,0000.0,0002.31,0004.40,0002.00
2023-12-15 11:02:00,SystemResetWarning,0833.4,5.00,000.00,018.7,017.7,000.0,027.2,020.0,17.8,0000.0,0002.28,0003.85,0001.97
2023-12-15 11:03:00,SystemResetWarning,0833.4,5.00,000.00,018.7,017.7,000.0,027.2,020.0,18.5,0000.0,0002.22,0003.60,0001.92
2023-12-15 11:04:00,SystemResetWarning,0833.4,4.99,000.00,018.7,017.7,000.0,027.2,020.0,18.4,0000.0,0002.12,0003.49,0001.86
2023-12-15 11:05:00,SystemResetWarning,0833.4,4.99,000.00,018.7,017.7,000.0,027.2,020.0,18.2,0000.0,0002.08,0003.49,0001.83
2023-12-15 11:06:00,SystemResetWarning,0833.4,5.00,000.00,018.7,017.7,000.0,027.2,020.0,18.8,0000.0,0002.03,0003.41,0001.80
2023-12-15 11:07:00,SystemResetWarning,0833.4,5.00,000.00,018.7,017.7,000.0,027.2,020.0,19.1,0000.0,0001.99,0003.33,0001.78
2023-12-15 11:08:00,SystemResetWarning,0833.4,5.00,000.00,018.7,017.7,000.0,027.2,020.0,19.1,0000.0,0001.96,0003.20,0001.77
2023-12-15 11:09:00,SystemResetWarning,0833.4,5.00,000.00,018.7,017.7,000.0,027.2,020.0,18.4,0000.0,0001.98,0003.23,0001.78
2023-12-15 11:10:00,SystemResetWarning,0833.4,5.00,000.00,018.7,017.7,000.0,027.2,020.0,18.3,0000.0,0002.00,0003.26,0001.80
2023-12-15 11:11:00,SystemResetWarning,0833.4,5.00,000.00,018.7,017.7,000.0,027.2,020.0,18.7,0000.0,0001.98,0002.94,0001.80
2023-12-15 11:12:00,SystemResetWarning,0833.3,4.99,000.00,018.7,017.6,000.0,027.2,020.0,18.6,0000.0,0001.95,0002.57,0001.78
2023-12-15 11:13:00,SystemResetWarning,0833.3,5.00,000.00,018.7,017.6,000.0,027.2,020.0,18.5,0000.0,0001.94,0003.11,0001.76
2023-12-15 11:14:00,SystemResetWarning,0833.3,5.00,000.00,018.7,017.6,000.0,027.2,020.0,18.0,0000.0,0001.97,0003.15,0001.78
2023-12-15 11:15:00,SystemResetWarning,0833.3,5.00,000.00,018.7,017.6,000.0,027.2,020.0,17.5,0000.0,0001.99,0003.17,0001.81
2023-12-15 11:16:00,SystemResetWarning,0833.4,5.00,000.00,018.7,017.6,000.0,027.2,020.0,17.1,0000.0,0002.01,0003.11,0001.81
2023-12-15 11:17:00,SystemResetWarning,0833.4,5.00,000.00,018.7,017.8,000.0,027.1,020.4,16.8,0000.0,0002.02,0003.15,0001.79
2023-12-15 11:18:00,SystemResetWarning,0833.4,5.01,000.00,018.9,018.5,000.0,027.2,020.9,18.0,0000.0,0001.99,0003.19,0001.75
2023-12-15 11:19:00,SystemResetWarning,0833.5,4.99,000.00,019.0,018.9,000.0,027.2,020.8,17.9,0000.0,0001.95,0003.15,0001.71
2023-12-15 11:20:00,SystemResetWarning,0833.4,4.99,000.00,019.0,018.8,000.0,027.2,020.6,17.3,0000.0,0001.89,0003.07,0001.67
2023-12-15 11:21:00,SystemResetWarning,0833.4,5.01,000.00,019.0,018.7,000.0,027.2,020.4,16.1,0000.0,0001.87,0003.06,0001.65
2023-12-15 11:22:00,SystemResetWarning,0833.4,5.00,000.00,019.0,018.6,000.0,027.2,020.3,15.6,0000.0,0001.83,0002.99,0001.61
2023-12-15 11:23:00,SystemResetWarning,0833.4,5.00,000.00,019.0,018.4,000.0,027.2,020.2,15.4,0000.0,0001.81,0002.97,0001.59
2023-12-15 11:24:00,SystemResetWarning,0833.4,4.99,000.00,018.9,018.3,000.0,027.2,020.2,15.3,0000.0,0001.74,0002.46,0001.56
2023-12-15 11:25:00,SystemResetWarning,0833.4,4.99,000.00,018.9,018.3,000.0,027.2,020.1,15.2,0000.0,0001.67,0002.15,0001.50
2023-12-15 11:26:00,SystemResetWarning,0833.5,4.99,000.00,018.9,018.2,000.0,027.2,020.1,15.1,0000.0,0001.63,0002.13,0001.45
2023-12-15 11:27:00,SystemResetWarning,0833.4,5.00,000.00,018.8,018.1,000.0,027.2,020.1,15.1,0000.0,0001.58,0002.05,0001.40
2023-12-15 11:28:00,SystemResetWarning,0833.4,5.01,000.00,018.8,018.1,000.0,027.2,020.0,15.6,0000.0,0001.52,0001.99,0001.35
2023-12-15 11:29:00,SystemResetWarning,0833.4,5.00,000.00,018.8,018.0,000.0,027.2,020.0,15.9,0000.0,0001.49,0002.05,0001.32
2023-12-15 11:30:00,SystemResetWarning,0833.4,5.00,000.00,018.8,018.0,000.0,027.2,020.0,15.7,0000.0,0001.45,0001.96,0001.28
2023-12-15 11:31:00,SystemResetWarning,0833.4,5.00,000.00,018.8,018.0,000.0,027.2,020.0,16.1,0000.0,0001.44,0001.99,0001.27
2023-12-15 11:32:00,SystemResetWarning,0833.4,5.00,000.00,018.8,017.9,000.0,027.2,020.0,16.6,0000.0,0001.41,0001.98,0001.22
2023-12-15 11:33:00,SystemResetWarning,0833.4,5.00,000.00,018.8,017.9,000.0,027.2,020.0,16.4,0000.0,0001.37,0001.93,0001.17
2023-12-15 11:34:00,SystemResetWarning,0833.4,5.00,000.00,018.8,017.9,000.0,027.2,020.0,16.0,0000.0,0001.33,0001.87,0001.15
2023-12-15 11:35:00,SystemResetWarning,0833.4,5.00,000.00,018.8,017.9,000.0,027.2,020.0,15.9,0000.0,0001.34,0001.86,0001.16
2023-12-15 11:36:00,SystemResetWarning,0833.4,5.00,000.00,018.8,017.9,000.0,027.2,020.0,15.9,0000.0,0001.36,0001.89,0001.18
2023-12-15 11:37:00,SystemResetWarning,0833.4,4.99,000.00,018.8,017.9,000.0,027.2,020.0,16.0,0000.0,0001.36,0001.88,0001.19
2023-12-15 11:38:00,SystemResetWarning,0833.4,5.00,000.00,018.8,017.9,000.0,027.2,020.0,16.1,0000.0,0001.38,0001.92,0001.20
2023-12-15 11:39:00,SystemResetWarning,0833.4,5.00,000.00,018.8,017.9,000.0,027.2,020.0,16.2,0000.0,0001.40,0001.99,0001.22
2023-12-15 11:40:00,SystemResetWarning,0833.4,5.00,000.00,018.8,017.9,000.0,027.2,020.0,15.8,0000.0,0001.41,0001.90,0001.24
2023-12-15 11:41:00,SystemResetWarning,0833.4,5.01,000.00,018.8,017.8,000.0,027.2,020.0,15.8,0000.0,0001.42,0001.93,0001.24
2023-12-15 11:42:00,SystemResetWarning,0833.4,5.01,000.00,018.8,017.8,000.0,027.2,020.0,15.8,0000.0,0001.41,0002.08,0001.24
2023-12-15 11:43:00,SystemResetWarning,0833.5,5.00,000.00,018.7,017.8,000.0,027.2,020.0,15.2,0000.0,0001.38,0002.03,0001.23
2023-12-15 11:44:00,SystemResetWarning,0833.4,4.99,000.00,018.7,017.8,000.0,027.2,020.0,14.9,0000.0,0001.38,0002.03,0001.23
2023-12-15 11:45:00,SystemResetWarning,0833.4,5.00,000.00,018.7,017.8,000.0,027.2,020.0,14.7,0000.0,0001.40,0002.08,0001.23
2023-12-15 11:46:00,SystemResetWarning,0833.4,5.00,000.00,018.7,017.8,000.0,027.2,020.0,14.4,0000.0,0001.38,0002.10,0001.20
2023-12-15 11:47:00,SystemResetWarning,0833.4,5.00,000.00,018.7,017.7,000.0,027.2,020.0,14.3,0000.0,0001.37,0002.09,0001.17
2023-12-15 11:48:00,SystemResetWarning,0833.4,5.00,000.00,018.7,017.7,000.0,027.2,020.0,14.3,0000.0,0001.35,0002.09,0001.16
2023-12-15 11:49:00,SystemResetWarning,0833.4,5.00,000.00,018.7,017.7,000.0,027.2,020.0,14.4,0000.0,0001.33,0002.92,0001.14
2023-12-15 11:50:00,SystemResetWarning,0833.5,5.00,000.00,018.7,017.7,000.0,027.2,020.0,14.4,0000.0,0001.28,0003.19,0001.11
2023-12-15 11:51:00,SystemResetWarning,0833.4,5.00,000.00,018.7,017.7,000.0,027.2,020.0,14.1,0000.0,0001.24,0003.06,0001.08
2023-12-15 11:52:00,SystemResetWarning,0833.4,5.00,000.00,018.7,017.7,000.0,027.2,020.0,14.0,0000.0,0001.23,0003.09,0001.06
2023-12-15 11:53:00,SystemResetWarning,0833.4,5.00,000.00,018.7,017.7,000.0,027.2,020.0,14.0,0000.0,0001.21,0002.94,0001.04
2023-12-15 11:54:00,SystemResetWarning,0833.4,5.00,000.00,018.7,017.7,000.0,027.2,020.0,13.9,0000.0,0001.17,0002.78,0001.02
2023-12-15 11:55:00,SystemResetWarning,0833.5,5.00,000.00,018.7,017.7,000.0,027.2,020.0,13.8,0000.0,0001.15,0002.75,0000.99
2023-12-15 11:56:00,SystemResetWarning,0833.4,5.00,000.00,018.7,017.7,000.0,027.2,020.0,13.9,0000.0,0001.11,0002.70,0000.96
2023-12-15 11:57:00,SystemResetWarning,0833.4,5.00,000.00,018.7,017.7,000.0,027.2,020.0,14.1,0000.0,0001.08,0002.63,0000.95
2023-12-15 11:58:00,SystemResetWarning,0833.4,5.00,000.00,018.7,017.7,000.0,027.2,020.0,14.2,0000.0,0001.05,0002.58,0000.94
2023-12-15 11:59:00,SystemResetWarning,0833.4,4.99,000.00,018.7,017.7,000.0,027.2,020.0,14.0,0000.0,0001.02,0002.51,0000.92
